Regional Weather Roundup
Issued by NWS

Home | Current Version | Previous Version | Graphics & Text | Print | Product List | Glossary On
Versions: 1 2 3 4 5 6 7 8 9 10 11 12 13 14 15 16 17 18 19 20 21 22 23 24 25 26 27
000
ASUS45 KCYS 300810
RWRWY

WYOMING REGIONAL WEATHER ROUNDUP
NATIONAL WEATHER SERVICE CHEYENNE WY
200 AM MDT THU OCT 30 2014

NOTE:  "FAIR" INDICATES FEW OR NO CLOUDS BELOW 12,000 FEET
WITH NO SIGNIFICANT WEATHER AND/OR OBSTRUCTIONS TO VISIBILITY.

WYZ001-300900-
YELLOWSTONE NATIONAL PARK

CITY           SKY/WX    TMP DP  RH WIND       PRES   REMARKS
LK YELLOWSTONE   N/A     25  23  92 CALM      30.36
W YELLOWSTONE  NOT AVBL

$$
WYZ002>013-054>058-071-098>099-300900-
NORTHERN WYOMING

CITY           SKY/WX    TMP DP  RH WIND       PRES   REMARKS
JACKSON        CLEAR     27  27 100 NE5       30.33S WCI  21
CODY           CLEAR     34  25  69 S8        30.25S WCI  27
GREYBULL       CLEAR     35  22  58 SE6       30.24R WCI  30
WORLAND        CLEAR     36  22  56 S12       30.24R WCI  28
SHERIDAN       PTCLDY    40  27  59 W9        30.24R WCI  34
BUFFALO        CLEAR     45  25  45 N10       30.26R
GILLETTE       CLEAR     39  25  57 W12       30.22R WCI  32
HULETT         FAIR      43  30  61 SW8       30.21R
NEWCASTLE      FAIR      32  28  86 N5        30.21  WCI  27

$$
WYZ014>020-022>026-101>103-300900-
CENTRAL WYOMING

CITY           SKY/WX    TMP DP  RH WIND       PRES   REMARKS
BIG PINEY      CLOUDY    30  23  75 N5        30.36S WCI  25
PINEDALE       SUNNY     23  21  93 NW3       30.37
DUBOIS         FAIR      32  27  80 NW8       30.31S WCI  25
LANDER         CLEAR     37  22  54 NW6       30.28R WCI  32
RIVERTON       PTCLDY    39  26  59 W13       30.28R WCI  31
CASPER         CLEAR     26  17  68 CALM      30.29R
DOUGLAS        CLEAR     36  22  56 NW5       30.28R WCI  32

$$
WYZ021-027>030-104>119-300900-
SOUTHERN WYOMING

CITY           SKY/WX    TMP DP  RH WIND       PRES   REMARKS
EVANSTON       PTCLDY    42  24  49 S5        30.36S
KEMMERER       SUNNY     34  28  80 CALM      30.37R
FORT BRIDGER   FAIR      40  26  56 W6        30.38S
ROCK SPRINGS   PTCLDY    35  27  72 SW6       30.35R WCI  30
RAWLINS        CLEAR     37  23  56 SW12      30.34R WCI  29
SARATOGA       CLOUDY    39  27  60 SW12      30.34S WCI  32
LARAMIE        CLOUDY    40  25  55 N5        30.32R
CHEYENNE       MOCLDY    42  24  49 NW12      30.28R
TORRINGTON     CLEAR     38  24  57 SW6       30.22R WCI  33
PINE BLUFFS    FAIR      37  27  65 NW12      30.25R WCI  30

$$



USA.gov is the U.S. government's official web portal to all federal, state and local government web resources and services.